Location: Chmeli�t?
(49.8978°N, 15.0526°E)
Time: 21:33:35
(UTC+00:00)

STARLINK-1353 - Pass Details

Date: 07 June 2020
Orbit: 531 x 535 km, 53.0° (Epoch: 04 July)

Event Time Altitude Azimuth Distance (km) Brightness Sun altitude
Rises 00:28:34 0° 283° (WNW) 2,684 7.0 -14.6°
Reaches altitude 10° 00:30:49 10° 287° (WNW) 1,793 6.2 -14.5°
Maximum altitude 00:34:50 56° 7° (N) 642 4.3 -14.3°
Drops below altitude 10° 00:38:51 10° 86° (E) 1,794 6.6 -14.0°
Sets 00:41:06 0° 91° (E) 2,685 7.5 -13.9°
